[[{"header":{"parameterUnit":"m.s-1","parameterCategory":1,"la1":30.2991,"la2":30.254,"lo1":-89.0895,"lo2":-89.0444,"dy":0.0017,"dx":0.0017,"nx":28,"ny":28,"refTime":"2025-07-31T03:00:00:Z","depth":0,"parameterNumber":2,"parameterNumberName":"U-component_of_WINDS"},"data":[0,0,0,0,0,0,0,0,0,0,0,0,0,0,0,0,0,0,0,0,0,0,0,0,0,0,0,0,0,0,0,0,0,0,0,0,0,0,0,0,0,0,0,0,0,0,0,0,0,0,0,0,0,0,0,0,0,0,3.364,3.3642,0,3.3777,3.3779,3.378,3.3773,3.3771,3.3769,3.3767,3.3907,3.3912,3.3918,0,0,0,0,0,0,0,0,0,0,0,0,0,3.3371,3.3376,3.364,3.3642,3.3643,3.3777,3.3779,3.3781,3.3773,3.3771,3.3769,3.3766,3.3905,3.3912,3.3918,0,0,0,0,0,0,0,0,0,0,0,0,0,3.3496,3.3377,3.364,3.3656,3.3659,3.3777,3.3779,3.3781,3.3774,3.3771,3.3768,3.3765,3.3903,3.3911,3.3919,3.403,0,0,3.3945,3.3948,0,0,0,0,0,0,0,0,3.3489,3.3506,3.3652,3.3655,3.3658,3.3755,3.3735,3.3865,3.3775,3.373,3.3767,3.3764,3.3859,3.3871,3.3903,3.4036,3.4042,3.3946,3.3951,3.3954,3.3956,0,0,0,0,0,0,0,3.348,3.35,3.3694,3.3654,3.3658,3.3656,3.367,3.376,3.3809,3.3734,3.3734,3.375,3.386,3.3895,3.3906,3.4044,3.3945,3.3953,3.3958,3.3961,3.4275,3.4278,0,0,0,0,0,0,3.3468,3.3492,3.369,3.3698,3.3564,3.3663,3.3679,3.3727,3.3808,3.3818,3.3752,3.3749,3.3882,3.3896,3.3911,3.4045,3.3954,3.3962,3.3967,3.4271,3.4275,3.4279,0,0,0,0,0,0,3.3462,3.3486,3.3684,3.3595,3.3621,3.3671,3.3724,3.3731,3.3766,3.3822,3.3831,3.3779,3.388,3.3899,3.4,3.4049,3.3966,3.3973,3.4267,3.4272,3.4277,3.4314,0,0,0,0,0,0,3.3454,3.3483,3.3526,3.3596,3.3625,3.3772,3.3728,3.3736,3.378,3.3777,3.3849,3.3859,3.3879,3.3988,3.4008,3.4059,3.398,3.4263,3.427,3.4275,3.4308,3.4319,3.4329,0,0,0,0,0,3.3445,3.3531,3.3528,3.3552,3.368,3.3775,3.3791,3.3813,3.3784,3.3827,3.3864,3.3856,3.4041,3.3998,3.4021,3.4076,3.426,3.4268,3.4275,3.4304,3.4317,3.4328,0,0,0,0,0,0,3.3465,3.3541,3.3538,3.365,3.3706,3.3773,3.3828,3.3827,3.3892,3.3887,3.3911,3.3928,3.4029,3.4063,3.4013,3.4186,3.4147,3.4159,3.416,3.4174,3.4184,3.4173,3.3987,0,0,0,0,0,3.3483,3.3554,3.3616,3.3708,3.3736,3.3778,3.382,3.3832,3.3891,3.3914,3.3958,3.4015,3.4086,3.4132,3.42,3.4313,3.4328,3.4362,3.4372,3.438,3.4391,3.4452,3.4467,3.4303,3.4303,3.4303,0,0,3.352,3.357,3.3613,3.3714,3.3758,3.3831,3.3797,3.3876,3.3929,3.3926,3.4024,3.4058,3.4123,3.423,3.428,3.4262,3.4439,3.439,3.4396,3.4402,3.4461,3.4477,3.449,3.4309,3.4308,3.4307,0,0,3.3624,3.3669,3.3751,3.3796,3.3864,3.3891,3.3911,3.3978,3.4001,3.4099,3.4098,3.4162,3.4284,3.433,3.437,3.4491,3.4486,3.4513,3.4565,3.4625,3.4638,3.465,3.4692,3.4707,3.4523,3.4523,3.4523,0,3.3661,3.377,3.3793,3.3871,3.3915,3.3916,3.3998,3.4041,3.4128,3.4158,3.4137,3.4289,3.4333,3.4451,3.448,3.4513,3.4535,3.4504,3.4634,3.4646,3.4657,3.4698,3.4714,3.4525,3.4525,3.4525,3.4525,0,3.3812,3.3887,3.3945,3.4029,3.4079,3.4159,3.4194,3.4242,3.425,3.4279,3.4379,3.4432,3.4511,3.454,3.4549,3.4659,3.4645,3.4629,3.4589,3.4675,3.4713,3.4729,3.4529,3.4528,3.4528,3.4527,0,0,3.3932,3.4027,3.4048,3.4085,3.416,3.4219,3.4299,3.4376,3.4417,3.4477,3.4544,3.4647,3.4632,3.4677,3.4691,3.4743,3.4834,3.472,3.4722,3.4739,3.4958,3.4969,3.4986,3.4832,3.4835,3.4838,3.4952,0,3.4043,3.4184,3.4207,3.4331,3.4401,3.4402,3.4472,3.4525,3.4554,3.4617,3.465,3.4722,3.4697,3.4724,3.4776,3.4812,3.4878,3.4804,3.4894,3.4897,3.4876,3.5007,3.5019,3.5124,3.4967,3.497,3.4972,0,3.4191,3.4254,3.4385,3.445,3.448,3.4542,3.4614,3.4675,3.4735,3.4753,3.4803,3.481,3.4893,3.4851,3.4964,3.4913,3.4951,3.4974,3.4979,3.4987,3.4938,3.5017,3.5158,3.5173,3.4996,3.4994,3.4992,0,3.4264,3.4382,3.4476,3.4508,3.4587,3.463,3.4665,3.4722,3.4767,3.483,3.4859,3.4931,3.497,3.5025,3.5052,3.5019,3.5163,3.5123,3.5179,3.5178,3.5208,3.5206,3.5356,3.5235,3.5235,3.5234,3.5234,0,3.4384,3.4464,3.4509,3.4567,3.4656,3.4681,3.4769,3.4803,3.4854,3.4917,3.4923,3.4983,3.5015,3.5079,3.5101,3.5191,3.5209,3.5225,3.5229,3.5223,3.5221,3.5248,3.5241,3.5239,3.5238,3.5237,3.5236,0,3.448,3.4514,3.4616,3.4682,3.47,3.4763,3.4819,3.4875,3.4904,3.4984,3.5004,3.505,3.5126,3.5158,3.5251,3.5266,3.5368,3.5368,3.5348,3.5349,3.5403,3.5397,3.5574,3.5599,3.5462,3.5464,3.5465,0,3.4555,3.4616,3.4688,3.4731,3.4767,3.4837,3.4882,3.4909,3.4956,3.5029,3.5076,3.5152,3.5214,3.5335,3.5376,3.5447,3.5448,3.5505,3.5459,3.5451,3.5447,3.5443,3.5449,3.5513,3.5515,3.5516,3.5517,0,3.4682,3.4696,3.4761,3.4832,3.4886,3.4944,3.5,3.5035,3.5071,3.5123,3.5201,3.5249,3.5344,3.5419,3.5492,3.5528,3.5528,3.5531,3.5548,3.5542,3.5527,3.5535,3.537,3.5527,3.5526,3.5525,3.5525,3.5524,3.4769,3.4823,3.4882,3.4955,3.5,3.5052,3.5107,3.5143,3.5208,3.5287,3.53,3.5382,3.544,3.5539,3.5578,3.5642,3.5628,3.5652,3.5658,3.5663,3.5666,3.5518,3.5656,3.5656,3.5656,3.5655,3.5655,0,3.4896,3.4934,3.5001,3.5079,3.5135,3.5131,3.5193,3.524,3.5313,3.5367,3.5428,3.5517,3.559,3.5636,3.571,3.5752,3.5754,3.5771,3.5767,3.5775,3.5675,3.5653,3.5768,3.5768,3.5768,3.5768,3.5768,3.5768,3.4969,3.506,3.508,3.5194,3.5231,3.5312,3.5347,3.5395,3.5439,3.5537,3.5598,3.5628,3.5679,3.5756,3.5822,3.5834,3.586,3.5877,3.5888,3.5794,3.5782,3.5771,3.575,3.5883,3.5883,3.5982,3.5983,3.5984]},{"header":{"parameterUnit":"m.s-1","parameterCategory":1,"la1":30.2991,"la2":30.254,"lo1":-89.0895,"lo2":-89.0444,"dy":0.0017,"dx":0.0017,"nx":28,"ny":28,"refTime":"2025-07-31T03:00:00:Z","depth":0,"parameterNumber":3,"parameterNumberName":"V-component_of_WINDS"},"data":[0,0,0,0,0,0,0,0,0,0,0,0,0,0,0,0,0,0,0,0,0,0,0,0,0,0,0,0,0,0,0,0,0,0,0,0,0,0,0,0,0,0,0,0,0,0,0,0,0,0,0,0,0,0,0,0,0,0,-0.2964,-0.2963,0,-0.2939,-0.2939,-0.2938,-0.2937,-0.2938,-0.2938,-0.2938,-0.2913,-0.2912,-0.2911,0,0,0,0,0,0,0,0,0,0,0,0,0,-0.3009,-0.3009,-0.2964,-0.2963,-0.2963,-0.2939,-0.2939,-0.2938,-0.2937,-0.2938,-0.2938,-0.2938,-0.2913,-0.2912,-0.2911,0,0,0,0,0,0,0,0,0,0,0,0,0,-0.2988,-0.3008,-0.2964,-0.296,-0.2959,-0.2939,-0.2939,-0.2938,-0.2937,-0.2938,-0.2938,-0.2939,-0.2913,-0.2912,-0.2911,-0.2893,0,0,-0.2906,-0.2906,0,0,0,0,0,0,0,0,-0.2989,-0.2986,-0.2961,-0.296,-0.2959,-0.2942,-0.2945,-0.2923,-0.2937,-0.2946,-0.2938,-0.2939,-0.2922,-0.292,-0.2914,-0.2892,-0.2891,-0.2906,-0.2905,-0.2905,-0.2904,0,0,0,0,0,0,0,-0.299,-0.2987,-0.2954,-0.296,-0.2959,-0.2959,-0.2956,-0.2941,-0.2932,-0.2945,-0.2945,-0.2942,-0.2922,-0.2916,-0.2914,-0.289,-0.2906,-0.2905,-0.2904,-0.2903,-0.2851,-0.2851,0,0,0,0,0,0,-0.2993,-0.2988,-0.2955,-0.2953,-0.2975,-0.2958,-0.2955,-0.2947,-0.2932,-0.293,-0.2942,-0.2942,-0.2918,-0.2915,-0.2913,-0.289,-0.2905,-0.2903,-0.2902,-0.2852,-0.2851,-0.2851,0,0,0,0,0,0,-0.2994,-0.299,-0.2956,-0.2971,-0.2966,-0.2957,-0.2948,-0.2946,-0.294,-0.2929,-0.2927,-0.2937,-0.2918,-0.2915,-0.2898,-0.2889,-0.2903,-0.2901,-0.2853,-0.2852,-0.2851,-0.2846,0,0,0,0,0,0,-0.2995,-0.299,-0.2983,-0.297,-0.2965,-0.2941,-0.2947,-0.2945,-0.2938,-0.2938,-0.2925,-0.2923,-0.2918,-0.29,-0.2896,-0.2888,-0.29,-0.2853,-0.2852,-0.2851,-0.2847,-0.2845,-0.2843,0,0,0,0,0,-0.2997,-0.2983,-0.2983,-0.2979,-0.2957,-0.2941,-0.2938,-0.2933,-0.2937,-0.293,-0.2923,-0.2923,-0.2891,-0.2898,-0.2894,-0.2885,-0.2854,-0.2852,-0.2851,-0.2847,-0.2845,-0.2844,0,0,0,0,0,0,-0.2994,-0.2981,-0.2981,-0.2963,-0.2953,-0.294,-0.2931,-0.2931,-0.2919,-0.292,-0.2915,-0.2912,-0.2894,-0.2888,-0.2896,-0.2867,-0.2873,-0.2871,-0.2871,-0.2869,-0.2868,-0.2869,-0.2899,0,0,0,0,0,-0.2992,-0.298,-0.2969,-0.2954,-0.2949,-0.2941,-0.2934,-0.2931,-0.292,-0.2916,-0.2908,-0.2898,-0.2885,-0.2877,-0.2865,-0.2846,-0.2843,-0.2838,-0.2837,-0.2835,-0.2833,-0.2822,-0.2819,-0.2847,-0.2847,-0.2847,0,0,-0.2986,-0.2978,-0.297,-0.2953,-0.2945,-0.2933,-0.2937,-0.2924,-0.2915,-0.2914,-0.2897,-0.2891,-0.2879,-0.2861,-0.2853,-0.2855,-0.2825,-0.2834,-0.2833,-0.2831,-0.2821,-0.2818,-0.2816,-0.2846,-0.2846,-0.2846,0,0,-0.2969,-0.2962,-0.2948,-0.294,-0.2928,-0.2923,-0.292,-0.2908,-0.2904,-0.2887,-0.2886,-0.2875,-0.2854,-0.2845,-0.2838,-0.2819,-0.2818,-0.2815,-0.2806,-0.2796,-0.2793,-0.2792,-0.2784,-0.2781,-0.2813,-0.2813,-0.2813,0,-0.2964,-0.2945,-0.2941,-0.2928,-0.292,-0.2919,-0.2905,-0.2898,-0.2882,-0.2877,-0.288,-0.2854,-0.2846,-0.2825,-0.2821,-0.2815,-0.2811,-0.2816,-0.2794,-0.2792,-0.279,-0.2783,-0.278,-0.2813,-0.2813,-0.2813,-0.2813,0,-0.2938,-0.2925,-0.2916,-0.2901,-0.2892,-0.2879,-0.2872,-0.2864,-0.2863,-0.2857,-0.284,-0.2831,-0.2816,-0.2812,-0.281,-0.2791,-0.2793,-0.2795,-0.2801,-0.2787,-0.278,-0.2777,-0.2812,-0.2813,-0.2813,-0.2813,0,0,-0.2918,-0.2902,-0.2898,-0.2891,-0.2879,-0.2868,-0.2855,-0.2841,-0.2834,-0.2824,-0.2812,-0.2794,-0.2796,-0.2788,-0.2786,-0.2777,-0.2761,-0.278,-0.278,-0.2776,-0.2738,-0.2735,-0.2732,-0.2761,-0.276,-0.276,-0.2739,0,-0.2899,-0.2875,-0.2871,-0.2849,-0.2837,-0.2837,-0.2825,-0.2815,-0.281,-0.2799,-0.2793,-0.2781,-0.2785,-0.278,-0.2771,-0.2765,-0.2753,-0.2766,-0.2749,-0.2748,-0.275,-0.2728,-0.2725,-0.2706,-0.2736,-0.2736,-0.2735,0,-0.2873,-0.2862,-0.2839,-0.2828,-0.2822,-0.2812,-0.2799,-0.2788,-0.2778,-0.2775,-0.2766,-0.2765,-0.275,-0.2758,-0.2738,-0.2747,-0.274,-0.2736,-0.2735,-0.2732,-0.274,-0.2724,-0.27,-0.2696,-0.2731,-0.2731,-0.2732,0,-0.2859,-0.2839,-0.2822,-0.2817,-0.2803,-0.2796,-0.279,-0.278,-0.2772,-0.2761,-0.2756,-0.2743,-0.2736,-0.2726,-0.2722,-0.2728,-0.2701,-0.2709,-0.2698,-0.2698,-0.2691,-0.2691,-0.2664,-0.2689,-0.2689,-0.2689,-0.2689,0,-0.2837,-0.2823,-0.2816,-0.2806,-0.279,-0.2786,-0.277,-0.2764,-0.2756,-0.2744,-0.2744,-0.2733,-0.2728,-0.2716,-0.2713,-0.2696,-0.2693,-0.269,-0.2689,-0.2689,-0.2689,-0.2683,-0.2684,-0.2688,-0.2688,-0.2689,-0.2689,0,-0.2818,-0.2813,-0.2795,-0.2784,-0.2781,-0.277,-0.276,-0.275,-0.2746,-0.2731,-0.2727,-0.272,-0.2706,-0.2701,-0.2684,-0.2682,-0.2662,-0.2663,-0.2665,-0.2665,-0.2654,-0.2654,-0.262,-0.2615,-0.2645,-0.2645,-0.2644,0,-0.2804,-0.2793,-0.2781,-0.2773,-0.2767,-0.2755,-0.2747,-0.2743,-0.2734,-0.2722,-0.2713,-0.27,-0.2688,-0.2667,-0.266,-0.2647,-0.2646,-0.2636,-0.2644,-0.2645,-0.2645,-0.2645,-0.2643,-0.2633,-0.2633,-0.2633,-0.2633,0,-0.2779,-0.2777,-0.2765,-0.2753,-0.2743,-0.2733,-0.2723,-0.2717,-0.2712,-0.2702,-0.2688,-0.268,-0.2663,-0.2649,-0.2636,-0.263,-0.263,-0.263,-0.2627,-0.2626,-0.2627,-0.2625,-0.2659,-0.263,-0.2631,-0.2631,-0.2631,-0.2631,-0.2761,-0.2751,-0.2741,-0.2728,-0.272,-0.2711,-0.2701,-0.2695,-0.2683,-0.2669,-0.2668,-0.2653,-0.2643,-0.2625,-0.2619,-0.2607,-0.2609,-0.2605,-0.2603,-0.2602,-0.26,-0.2631,-0.2604,-0.2605,-0.2605,-0.2605,-0.2605,0,-0.2734,-0.2728,-0.2716,-0.2702,-0.2692,-0.2694,-0.2684,-0.2675,-0.2661,-0.2652,-0.2641,-0.2625,-0.2612,-0.2604,-0.2591,-0.2583,-0.2582,-0.2579,-0.2579,-0.2577,-0.2599,-0.2603,-0.258,-0.258,-0.258,-0.258,-0.258,-0.258,-0.2719,-0.2702,-0.2699,-0.2678,-0.2672,-0.2657,-0.265,-0.2642,-0.2635,-0.2617,-0.2606,-0.2601,-0.2592,-0.2579,-0.2566,-0.2565,-0.2559,-0.2555,-0.2554,-0.2574,-0.2576,-0.2578,-0.2582,-0.2555,-0.2555,-0.2533,-0.2533,-0.2532]}]]